Tracking 35237 objects as of 6-Sep-2026
HD Live streaming from Space Station
objects crossing your sky now

ARIANE 5 DEB (SYLDA)


ARIANE 5 DEB (SYLDA) is no longer on orbit


NORAD ID: 40943
Int'l Code: 2015-054D
Launch date: September 30, 2015
Source: France (FR)
Launch site: FRENCH GUIANA (FRGUI)
Decay date: 2020-02-20

Note: This is SATELLITE DEBRIS
Your satellite tracking list
Your tracking list is empty




NASA's NSSDC Master Catalog

Two Line Element Set (TLE):
1 40943U 15054D   20049.86643802 +.37768582 -26404-4 +21394-2 0  9995
2 40943 006.3199 296.3751 0713502 210.1596 244.4978 14.81689625059322
Source of the keplerian elements: AFSPC